Regional Weather Roundup
Issued by NWS

Home | Current Version | Previous Version | Graphics & Text | Print | Product List | Glossary On
Versions: 1 2 3 4 5 6 7 8 9 10 11 12 13 14 15 16 17 18 19 20 21 22 23 24 25 26 27 28 29 30 31 32 33 34 35 36 37 38 39 40 41 42 43 44 45 46 47 48 49 50
000
ASUS45 KBOU 292207
RWRCO

WEATHER ROUNDUP FOR COLORADO
NATIONAL WEATHER SERVICE DENVER/BOULDER CO
400 PM MDT MON SEP 29 2014

NOTE: "FAIR" INDICATES FEW OR NO CLOUDS BELOW 12000 FEET WITH NO
SIGNIFICANT WEATHER AND/OR OBSTRUCTIONS TO VISIBILITY.

COZ001>005-013-030-031-292300-
...NORTHWEST COLORADO...

CITY           SKY/WX    TMP DP  RH WIND       PRES   REMARKS
CRAIG          CLOUDY    56  41  57 NW12      29.98S
HAYDEN         CLOUDY    55  36  47 NW12G18   29.98S
MEEKER         CLOUDY    52  39  61 SW8       30.01R
MOUNT WERNER   NOT AVBL
STEAMBOAT SPGS CLOUDY    53  40  61 W9        29.99S
WALDEN         CLOUDY    45  37  76 S5        30.06R
$$

COZ006>008-011-292300-
...WEST CENTRAL VALLEYS...

CITY           SKY/WX    TMP DP  RH WIND       PRES   REMARKS
GRAND JUNCTION CLOUDY    54  41  61 W25G36    30.00R
MONTROSE       CLOUDY    54  41  61 S6        30.02F
EAGLE          LGT RAIN  45  43  93 W6        30.07R
RIFLE          LGT RAIN  51  42  71 SW8G21    30.03R
DELTA          NOT AVBL
NUCLA          CLOUDY    54  43  66 S6        30.07R
$$

COZ017>023-064>068-292300-
...SOUTHWEST COLORADO...

CITY           SKY/WX    TMP DP  RH WIND       PRES   REMARKS
DURANGO        PTSUNNY   54  43  66 CALM      30.05S
CORTEZ         PTSUNNY   59  41  51 W10       30.05S
PAGOSA SPRINGS LGT RAIN  41  40  95 NE7       30.09F
TELLURIDE      NOT AVBL
WOLF CREEK PAS CLOUDY    28  28 100 SW36G47   30.20F VSB<1/4 WCI  12
$$

COZ009-010-012-014-032>034-037-058>063-292300-
...CENTRAL COLORADO...

CITY           SKY/WX    TMP DP  RH WIND       PRES   REMARKS
ASPEN          RAIN      43  40  89 N6G14     30.06R
BUENA VISTA    CLOUDY    48  37  65 N7        30.05R
COPPER MTN     SNOW      36  32  87 SE20      30.16F VSB 1/2
BERTHOUD PASS  TSTM      32  30  93 W7        30.20F VSB 1/2 WCI  26
COTTONWOOD PAS FLURRIES  41  32  70 W29G41    30.08F
GUNNISON       CLOUDY    43  34  70 SW9G20    30.11S
KREMMLING      LGT RAIN  50  43  76 S5        30.04S
LEADVILLE      CLOUDY    38  36  92 VRB6      30.09F
MONARCH PASS   CLOUDY    30  30 100 MISG      30.26F
SALIDA         CLOUDY    51  40  68 N6        30.09F
SUNLIGHT       CLOUDY    34  34 100 CALM      30.16S VSB 1/2
WILKERSON PASS NOT AVBL
$$

COZ069>075-292300-
...SAN LUIS VALLEY/SANGRE DE CRISTO MOUNTAINS...

CITY           SKY/WX    TMP DP  RH WIND       PRES   REMARKS
ALAMOSA        CLOUDY    48  41  76 CALM      30.04F
LA VETA PASS   TSTM      39  37  93 S13G26    30.16R
SAGUACHE       CLOUDY    46  37  71 NW7       30.05F
$$

COZ035-036-038>040-292300-
...NORTHERN COLORADO FRONT RANGE...

CITY           SKY/WX    TMP DP  RH WIND       PRES   REMARKS
DENVER INTL AP TSTM      53  50  89 NW21G26   29.88S FOG
DMNS CITY PARK   N/A     55  53  94 SW3G10    29.89F
AURORA         LGT RAIN  53  53 100 N7        29.92F
FRONT RANGE AP NOT AVBL
ERIE MUNI ARPT LGT RAIN  56  54  91 N3        29.89S
BOULDER MUN AP DRIZZLE   55  54  94 CALM      29.90F
CENTENNIAL     CLOUDY    53  51  93 NW9       29.92F THUNDER
BROOMFIELD     LGT RAIN  55  54  94 N9        29.91F
FORT COLLINS   CLOUDY    55  52  88 N7        29.88F
LONGMONT       CLOUDY    59  55  86 CALM      29.90R
$$

COZ041-046-047-076>085-087-088-292300-
...PIKES PEAK/PALMER DIVIDE AND SOUTHERN FOOTHILLS...

CITY           SKY/WX    TMP DP  RH WIND       PRES   REMARKS
COLO. SPRINGS  PTSUNNY   63  51  65 N7        29.85F
A. F. ACADEMY  MOSUNNY   58  51  76 N8        29.88F
ELLICOTT       NOT AVBL
FALCON         PTSUNNY   58  50  73 N7        29.90F
FORT CARSON    MOSUNNY   62  54  74 NW6       29.82F
LIMON          TSTM      52  49  89 E20G30    29.82S VSB 1
MONUMENT HILL  CLOUDY    52  48  87 CALM      29.93F
TRINIDAD       MOSUNNY   74  46  36 S32G43    29.83F
$$

COZ042>045-048>051-090-091-292300-
...NORTHEAST COLORADO...

CITY           SKY/WX    TMP DP  RH WIND       PRES   REMARKS
GREELEY ARPT   CLOUDY    57  48  72 W25G35    29.86R THUNDER
AKRON          PTSUNNY   64  59  83 E18G28    29.81F
BURLINGTON     SUNNY     81  52  36 SE32G40   29.81F
WRAY           MOSUNNY   81  51  34 SE28G39   29.77F
STERLING       PTSUNNY   79  59  50 E7        29.76F
HOLYOKE        MOSUNNY   79  55  44 SE18G28   29.79F
FORT MORGAN    MOSUNNY   66  54  63 NE10      29.81F
$$

COZ086-089-092>099-292300-
...SOUTHEAST COLORADO...

CITY           SKY/WX    TMP DP  RH WIND       PRES   REMARKS
PUEBLO         TSTM      71  54  54 E6        29.74F
LA JUNTA       PTSUNNY   84  43  23 MISG      29.73F
LAMAR          MOSUNNY   85  52  32 S29G43    29.76F
SPRINGFIELD      N/A     77  54  44 S29G38    29.87F
$$


USA.gov is the U.S. government's official web portal to all federal, state and local government web resources and services.